Location: Buckland
(65.9785°N, 161.1281°W)
Time: 12:08:37
(UTC+00:00)

Vanguard 2 Rocket - All Passes

Search period start: 30 November 2020 00:00
Search period end: 10 December 2020 00:00
Orbit: 553 x 3326 km, 32.9° (Epoch: 29 November)

Date Brightness Start Highest point End Pass type
(mag) Time Alt. Az. Time Alt. Az. Time Alt. Az.
30 Nov - 18:12:55 10° S 18:20:59 14° SSE 18:28:28 10° SE visible
30 Nov - 20:23:40 10° SW 20:33:05 16° S 20:41:17 10° SSE daylight
30 Nov - 22:41:15 10° SW 22:44:34 11° SSW 22:47:40 10° SSW daylight
01 Dec - 17:14:55 10° S 17:21:02 12° SSE 17:26:58 10° SE visible
01 Dec - 19:22:59 10° SSW 19:33:06 17° S 19:42:09 10° SE daylight
01 Dec - 21:37:25 10° SW 21:45:01 14° SSW 21:51:42 10° S daylight
02 Dec - 18:23:03 10° SSW 18:33:02 16° SSE 18:42:20 10° SE visible
02 Dec - 20:35:30 10° SW 20:45:13 16° SSW 20:53:46 10° SSE daylight
03 Dec - 17:23:59 10° S 17:32:59 15° SSE 17:41:41 10° SE visible
03 Dec - 19:34:28 10° SW 19:45:12 18° S 19:54:56 10° SSE daylight
03 Dec - 21:50:32 10° SW 21:56:59 13° SSW 22:02:54 10° S daylight
04 Dec - 16:26:13 10° S 16:33:01 13° SSE 16:39:49 10° SE visible
04 Dec - 18:34:09 10° SSW 18:45:05 18° S 18:55:23 10° SE visible
04 Dec - 20:47:57 10° SW 20:57:14 16° SSW 21:05:38 10° S daylight
05 Dec - 17:34:34 10° SSW 17:44:56 17° SSE 17:55:08 10° SE visible
05 Dec - 19:46:32 10° SW 19:57:14 17° SSW 20:07:09 10° SSE daylight
05 Dec - 22:05:21 10° SW 22:08:50 11° SW 22:12:09 10° SSW daylight
06 Dec - 16:35:53 10° S 16:44:52 15° SSE 16:54:01 10° SE visible
06 Dec - 18:45:55 10° SW 18:57:06 18° S 19:07:53 10° SSE visible
06 Dec - 21:01:06 10° SW 21:09:08 14° SSW 21:16:38 10° S daylight
07 Dec - 15:38:34 10° SSE 15:44:58 13° SSE 15:51:37 10° SE visible
07 Dec - 17:46:01 10° SSW 17:56:55 18° S 18:07:54 10° SE visible
07 Dec - 19:59:10 10° SW 20:09:12 16° SSW 20:18:44 10° SSE daylight
08 Dec - 16:46:51 10° SSW 16:56:47 17° SSE 17:07:10 10° SE visible
08 Dec - 18:58:14 10° SW 19:09:06 18° S 19:19:48 10° SSE visible
08 Dec - 21:15:36 10° SW 21:20:55 12° SW 21:26:04 10° SSW daylight
09 Dec - 15:48:36 10° S 15:56:48 15° SSE 16:05:34 10° SE visible
09 Dec - 17:58:03 10° SW 18:08:55 18° S 18:20:06 10° SE visible
09 Dec - 20:12:31 10° SW 20:21:05 15° SSW 20:29:27 10° S daylight
